Location: Newark
(13.8117°N, 3.6025°W)
Time: 11:23:39
(UTC+00:00)

Vanguard 2 - Pass Details

Date: 28 August 2019
Orbit: 554 x 2937 km, 32.9° (Epoch: 22 September)

Event Time Altitude Azimuth Distance (km) Brightness Sun altitude
Rises 21:57:10 0° 254° (WSW) 6,455 12.6 -48.5°
Reaches altitude 10° 22:07:14 10° 225° (SW) 5,736 12.0 -50.5°
Maximum altitude 22:11:25 11° 211° (SSW) 5,664 11.8 -51.3°
Enters shadow 22:14:21 11° 201° (SSW) 5,697 11.8 -51.9°
Drops below altitude 10° 22:15:37 10° 196° (SSW) 5,733 - -52.2°
Sets 22:25:55 0° 166° (SSE) 6,433 - -54.1°
